Flag for China Weather past 2 weeks in Shanghai, Shanghai Municipality, China

Now
86 °F

Partly sunny.


Feels Like: 91 °F
Forecast: 73 / 84 °F
Wind: 6 mph from Southeast

Location: Shanghai Hongqiao Airport

Current Time: Aug 28, 2015 at 4:10:52 PM

Latest Report: Aug 28, 2015 at 3:30 PM


Visibility: 5 mi

Pressure: 29.74 "Hg

Humidity: 59%

Dew point: 70 °F

Location of ShanghaiLocation

Historic Weather in Shanghai — Graph

°F

Shanghai temperature yesterday

Maximum temperature yesterday: 90 °F (at 12:30 PM)
Minimum temperature yesterday: 75 °F (at 2:00 AM)
Average temperature yesterday: 82 °F

Past Weeks' High & Low Weather Summary

 TemperatureHumidityPressure
High93 °F (Aug 19, 12:30 PM)100% (Aug 22, 9:00 AM)29.86 "Hg (Aug 22, 9:00 AM)
Low72 °F (Aug 24, 1:00 PM)41% (Aug 14, 1:00 PM)29.53 "Hg (Aug 24, 5:30 AM)
Average80 °F77%29.72 "Hg
* Reported Aug 13 3:00 PM — Aug 28 3:00 PM, Shanghai, Weather by CustomWeather, © 2015

Note: Actual official high and low records may vary slightly from our data, if they occured in-between our weather recording intervals... More about our weather records

Advertising

Shanghai weather history for previous 24 hours

 ConditionsComfort  
Time TempWeatherWind HumidityBarometerVisibility
3:00 PM
Fri, Aug 28
86 °FPartly sunny.8 mph59%29.74 "Hg5 mi
2:30 PM88 °FScattered clouds.3 mph52%29.74 "Hg5 mi
2:00 PM86 °FScattered clouds.6 mph59%29.74 "Hg5 mi
1:30 PM90 °FScattered clouds.6 mph52%29.74 "Hg5 mi
1:00 PM88 °FScattered clouds.3 mph55%29.77 "Hg5 mi
12:30 PM86 °FScattered clouds.6 mph59%29.77 "Hg5 mi
12:00 PM88 °FClear.3 mph52%29.77 "Hg4 mi
11:00 AM86 °FClear.6 mph62%29.80 "Hg4 mi
10:30 AM84 °FClear.3 mph62%29.80 "Hg4 mi
10:00 AM84 °FHaze.3 mph66%29.80 "Hg3 mi
9:30 AM84 °FHaze.6 mph70%29.80 "Hg2 mi
9:00 AM82 °FHaze.6 mph70%29.80 "Hg2 mi
8:30 AM81 °FFog.6 mph79%29.80 "Hg2 mi
8:00 AM81 °FFog.6 mph79%29.80 "Hg2 mi
7:30 AM79 °FFog.3 mph84%29.80 "Hg1 mi
7:00 AM77 °FFog.3 mph89%29.80 "Hg1 mi
6:30 AM75 °FFog.3 mph89%29.77 "Hg1 mi
6:00 AM75 °FFog.3 mph89%29.77 "Hg1 mi
5:30 AM75 °FFog.3 mph83%29.77 "Hg2 mi
5:00 AM75 °FFog.3 mph83%29.77 "Hg3 mi
4:30 AM75 °FFog.3 mph83%29.77 "Hg3 mi
4:00 AM75 °FFog.6 mph89%29.77 "Hg3 mi
3:30 AM75 °FFog.6 mph89%29.77 "Hg3 mi
3:00 AM77 °FClear.3 mph89%29.77 "Hg4 mi
2:30 AM77 °FClear.No wind89%29.77 "Hg4 mi
2:00 AM77 °FClear.1 mph89%29.77 "Hg5 mi
1:30 AM77 °FClear.6 mph89%29.77 "Hg5 mi
1:00 AM79 °FClear.3 mph79%29.80 "Hg5 mi
12:30 AM77 °FClear.1 mph83%29.80 "Hg10 mi
12:00 AM79 °FClear.3 mph79%29.80 "Hg10 mi
11:30 PM
Thu, Aug 27
79 °FPassing clouds.3 mph79%29.80 "HgN/A
11:00 PM81 °FPassing clouds.3 mph70%29.80 "HgN/A
10:30 PM81 °FClear.1 mph70%29.83 "Hg10 mi
10:00 PM81 °FPassing clouds.6 mph70%29.83 "HgN/A
9:30 PM81 °FPassing clouds.8 mph74%29.80 "HgN/A
9:00 PM81 °FClear.6 mph70%29.80 "Hg10 mi
8:30 PM82 °FClear.6 mph66%29.80 "Hg10 mi
8:00 PM82 °FClear.6 mph66%29.77 "Hg10 mi
7:30 PM82 °FClear.6 mph66%29.77 "Hg10 mi
7:00 PM84 °FClear.1 mph55%29.77 "Hg10 mi
6:30 PM84 °FPassing clouds.6 mph58%29.74 "HgN/A
5:30 PM86 °FPassing clouds.8 mph55%29.74 "HgN/A
5:00 PM86 °FSunny.8 mph59%29.74 "Hg10 mi
4:30 PM88 °FPassing clouds.8 mph55%29.74 "HgN/A
4:00 PM88 °FSunny.8 mph55%29.74 "Hg10 mi
Weather by CustomWeather, © 2015

See weather overviewHow to use our weather pages